Flag for Taiwan Weather past 2 weeks in Kaohsiung, Taiwan

Now
79 °F

Sprinkles. Partly sunny.


Feels Like: 83 °F
Forecast: 81 / 87 °F
Wind: 7 mph from South

Location: Kaohsiung International Airport

Current Time: Jul 7, 2015 at 11:35:06 AM

Latest Report: Jul 7, 2015 at 11:00 AM


Visibility: 2 mi

Pressure: 29.53 "Hg

Humidity: 94%

Dew point: 77 °F

Location of KaohsiungLocation

Historic Weather in Kaohsiung — Graph

°F

Kaohsiung temperature yesterday

Maximum temperature yesterday: 90 °F (at 11:30 AM)
Minimum temperature yesterday: 81 °F (at 3:00 AM)
Average temperature yesterday: 85 °F

Past Weeks' High & Low Weather Summary

 TemperatureHumidityPressure
High93 °F (Jun 22, 10:30 AM)94% (Jun 23, 2:30 PM)29.89 "Hg (Jun 23, 2:30 PM)
Low81 °F (Jun 23, 2:30 PM)56% (Jun 22, 10:00 AM)29.47 "Hg (Jul 6, 1:30 PM)
Average87 °F77%29.71 "Hg
* Reported Jun 22 10:00 AM — Jul 7 10:00 AM, Kaohsiung, Weather by CustomWeather, © 2015

Note: Actual official high and low records may vary slightly from our data, if they occured in-between our weather recording intervals... More about our weather records

Advertising

Kaohsiung weather history for previous 24 hours

 ConditionsComfort  
Time TempWeatherWind HumidityBarometerVisibility
10:00 AM
Tue, Jul 7
84 °FSprinkles. Broken clouds.3 mph74%29.53 "Hg2 mi
9:54 AM84 °FSprinkles. Broken clouds.2 mph79%29.53 "Hg4 mi
9:30 AM82 °FScattered showers. Broken clouds.6 mph79%29.50 "HgN/A
9:00 AM82 °FSprinkles. Broken clouds.2 mph84%29.50 "Hg6 mi
8:58 AM82 °FSprinkles. Broken clouds.2 mph84%29.53 "Hg6 mi
8:30 AM82 °FSprinkles. Broken clouds.2 mph84%29.53 "Hg4 mi
8:00 AM82 °FSprinkles. Partly sunny.1 mph89%29.53 "Hg3 mi
7:30 AM82 °FPartly sunny.7 mph89%29.50 "Hg4 mi
7:00 AM82 °FBroken clouds.7 mph89%29.50 "Hg4 mi
6:30 AM81 °FFog.7 mph94%29.50 "Hg3 mi
5:58 AM81 °FFog.7 mph94%29.50 "Hg3 mi
5:00 AM81 °FSprinkles. Partly cloudy.3 mph94%29.50 "Hg3 mi
4:00 AM81 °FPartly cloudy.7 mph94%29.47 "Hg4 mi
3:00 AM84 °FPassing clouds.2 mph74%29.47 "HgN/A
2:00 AM84 °FPartly cloudy.10 mph79%29.50 "Hg6 mi
1:00 AM84 °FPartly cloudy.7 mph84%29.50 "HgN/A
12:00 AM82 °FPassing clouds.1 mph84%29.50 "HgN/A
11:30 PM
Mon, Jul 6
82 °FPassing clouds.2 mph84%29.50 "HgN/A
11:00 PM82 °FPassing clouds.3 mph89%29.53 "HgN/A
10:30 PM82 °FPassing clouds.3 mph84%29.50 "HgN/A
10:00 PM82 °FPassing clouds.5 mph84%29.50 "HgN/A
9:30 PM82 °FPassing clouds.5 mph89%29.53 "HgN/A
9:00 PM82 °FPassing clouds.7 mph89%29.50 "Hg6 mi
8:30 PM82 °FPassing clouds.8 mph89%29.53 "Hg4 mi
8:00 PM82 °FPassing clouds.9 mph89%29.50 "Hg4 mi
7:30 PM84 °FScattered showers. Passing clouds.7 mph84%29.50 "Hg4 mi
7:00 PM84 °FScattered showers. Partly cloudy.8 mph84%29.50 "Hg4 mi
6:30 PM86 °FScattered showers. Broken clouds.9 mph79%29.50 "Hg4 mi
6:00 PM86 °FBroken clouds.10 mph79%29.47 "Hg5 mi
5:30 PM84 °FBroken clouds.12 mph84%29.47 "Hg4 mi
5:00 PM86 °FBroken clouds.9 mph79%29.47 "Hg5 mi
4:30 PM88 °FBroken clouds.10 mph75%29.47 "Hg5 mi
4:00 PM88 °FBroken clouds.8 mph79%29.47 "Hg4 mi
3:30 PM86 °FBroken clouds.8 mph79%29.47 "Hg4 mi
3:00 PM88 °FBroken clouds.12 mph75%29.47 "Hg4 mi
2:30 PM88 °FBroken clouds.10 mph75%29.47 "Hg4 mi
2:00 PM88 °FBroken clouds.10 mph75%29.47 "Hg4 mi
1:30 PM90 °FBroken clouds.12 mph71%29.47 "Hg4 mi
1:00 PM90 °FPartly sunny.10 mph71%29.50 "Hg5 mi
12:30 PM88 °FPartly sunny.9 mph75%29.50 "Hg5 mi
12:00 PM90 °FPartly sunny.7 mph71%29.50 "Hg4 mi
11:30 AM90 °FPartly sunny.6 mph75%29.53 "Hg4 mi
11:00 AM88 °FPartly sunny.7 mph79%29.50 "Hg3 mi
Weather by CustomWeather, © 2015

See weather overviewHow to use our weather pages